timestamp,wind_dir_avg,wind_spd_avg,wind_spd_max_dir,wind_spd_gust,battery_voltage,lat,long
2022-04-21 00:04:01+00:00,234.0,6.58,231.0,7.25,12.33,47.59359,-54.27349
2022-04-21 00:14:01+00:00,253.0,8.66,257.0,9.33,12.25,47.59359,-54.27349
2022-04-21 00:24:01+00:00,253.0,8.42,254.0,9.68,12.25,47.59359,-54.27349
2022-04-21 00:34:01+00:00,256.0,7.51,259.0,8.35,12.25,47.59359,-54.27349
2022-04-21 00:44:01+00:00,240.0,6.07,240.0,6.88,12.25,47.59359,-54.27349
2022-04-21 00:54:01+00:00,228.0,5.83,228.0,7.12,12.25,47.59359,-54.27349
2022-04-21 01:04:01+00:00,225.0,5.01,228.0,5.9,12.25,47.59359,-54.27349
2022-04-21 01:14:00+00:00,222.0,3.81,217.0,4.46,12.25,47.59359,-54.27349
2022-04-21 01:24:00+00:00,206.0,4.17,203.0,4.65,12.25,47.59359,-54.27349
2022-04-21 01:34:00+00:00,208.0,5.72,209.0,6.53,12.25,47.59359,-54.27349
2022-04-21 01:44:00+00:00,207.0,6.32,207.0,7.17,12.25,47.59359,-54.27349
2022-04-21 01:54:00+00:00,206.0,6.68,205.0,7.57,12.25,47.59359,-54.27349
2022-04-21 02:04:00+00:00,211.0,6.89,210.0,7.79,12.25,47.59359,-54.27349
2022-04-21 02:14:01+00:00,211.0,8.58,213.0,10.03,12.17,47.59359,-54.27349
2022-04-21 02:24:01+00:00,216.0,7.63,220.0,8.53,12.17,47.59359,-54.27349
2022-04-21 02:34:01+00:00,217.0,9.02,217.0,11.27,12.17,47.59359,-54.27349
2022-04-21 02:44:01+00:00,219.0,8.03,221.0,9.64,12.17,47.59359,-54.27349
2022-04-21 02:54:01+00:00,218.0,8.72,232.0,10.6,12.17,47.59359,-54.27349
2022-04-21 03:04:01+00:00,217.0,8.69,224.0,10.08,12.17,47.59359,-54.27349
2022-04-21 03:14:00+00:00,213.0,8.54,217.0,10.52,12.09,47.59359,-54.27349
2022-04-21 03:24:00+00:00,211.0,7.98,218.0,9.08,12.09,47.59359,-54.27349
2022-04-21 03:34:00+00:00,214.0,8.74,221.0,10.32,12.09,47.59359,-54.27349
2022-04-21 03:44:00+00:00,211.0,8.48,226.0,11.5,12.09,47.59359,-54.27349
2022-04-21 03:54:00+00:00,211.0,7.67,222.0,9.23,12.09,47.59359,-54.27349
2022-04-21 04:04:00+00:00,214.0,9.07,226.0,11.36,12.09,47.59359,-54.27349
2022-04-21 04:14:01+00:00,207.0,9.16,216.0,10.53,12.09,47.59359,-54.27349
2022-04-21 04:24:01+00:00,213.0,9.57,221.0,11.5,12.09,47.59359,-54.27349
2022-04-21 04:34:01+00:00,214.0,10.23,221.0,12.33,12.09,47.59359,-54.27349
2022-04-21 04:44:01+00:00,216.0,10.04,225.0,11.52,12.09,47.59359,-54.27349
2022-04-21 04:54:01+00:00,216.0,9.89,222.0,11.37,12.09,47.59359,-54.27349
2022-04-21 05:04:01+00:00,210.0,8.17,222.0,9.52,12.09,47.59359,-54.27349
2022-04-21 05:14:01+00:00,216.0,9.85,219.0,11.69,12.17,47.59359,-54.27349
2022-04-21 05:24:01+00:00,217.0,10.45,217.0,11.81,12.17,47.59359,-54.27349
2022-04-21 05:34:01+00:00,217.0,10.36,223.0,11.86,12.17,47.59359,-54.27349
2022-04-21 05:44:01+00:00,210.0,9.32,222.0,10.71,12.17,47.59359,-54.27349
2022-04-21 05:54:01+00:00,217.0,10.28,221.0,12.34,12.17,47.59359,-54.27349
2022-04-21 06:04:01+00:00,221.0,10.91,227.0,12.21,12.17,47.59359,-54.27349
2022-04-21 06:14:01+00:00,221.0,9.75,227.0,11.8,12.01,47.59359,-54.27349
2022-04-21 06:24:01+00:00,223.0,10.83,226.0,12.06,12.01,47.59359,-54.27349
2022-04-21 06:34:01+00:00,217.0,9.16,220.0,10.9,12.01,47.59359,-54.27349
2022-04-21 06:44:01+00:00,221.0,8.35,226.0,9.21,12.01,47.59359,-54.27349
2022-04-21 06:54:01+00:00,209.0,6.58,212.0,7.39,12.01,47.59359,-54.27349
2022-04-21 07:04:01+00:00,205.0,6.94,205.0,7.87,12.01,47.59359,-54.27349
2022-04-21 07:14:00+00:00,201.0,7.36,204.0,8.32,12.01,47.59359,-54.27349
2022-04-21 07:24:00+00:00,208.0,7.4,210.0,8.63,12.01,47.59359,-54.27349
2022-04-21 07:34:00+00:00,216.0,7.9,227.0,9.21,12.01,47.59359,-54.27349
2022-04-21 07:44:00+00:00,215.0,7.96,224.0,9.06,12.01,47.59359,-54.27349
2022-04-21 07:54:00+00:00,218.0,9.17,223.0,11.38,12.01,47.59359,-54.27349
2022-04-21 08:04:00+00:00,214.0,8.83,219.0,9.8,12.01,47.59359,-54.27349
2022-04-21 08:14:01+00:00,220.0,8.55,222.0,10.13,12.01,47.59359,-54.27349
2022-04-21 08:24:01+00:00,228.0,7.84,237.0,9.54,12.01,47.59359,-54.27349
2022-04-21 08:34:01+00:00,217.0,6.5,214.0,7.08,12.01,47.59359,-54.27349
2022-04-21 08:44:01+00:00,220.0,6.41,217.0,7.17,12.01,47.59359,-54.27349
2022-04-21 08:54:01+00:00,215.0,6.74,220.0,7.58,12.01,47.59359,-54.27349
2022-04-21 09:04:01+00:00,213.0,6.2,216.0,6.93,12.01,47.59359,-54.27349
2022-04-21 09:14:00+00:00,231.0,6.28,231.0,7.4,12.09,47.59359,-54.27349
2022-04-21 09:24:00+00:00,232.0,5.69,238.0,6.76,12.09,47.59359,-54.27349
2022-04-21 09:34:00+00:00,227.0,6.17,226.0,7.29,12.09,47.59359,-54.27349
2022-04-21 09:44:00+00:00,230.0,6.32,227.0,7.64,12.09,47.59359,-54.27349
2022-04-21 09:54:00+00:00,224.0,5.98,224.0,6.85,12.09,47.59359,-54.27349
2022-04-21 10:04:00+00:00,228.0,6.49,234.0,7.83,12.09,47.59359,-54.27349
2022-04-21 10:14:00+00:00,226.0,6.11,234.0,6.93,13.37,47.59359,-54.27349
2022-04-21 10:24:00+00:00,226.0,6.0,220.0,7.08,13.37,47.59359,-54.27349
2022-04-21 10:34:00+00:00,219.0,6.12,216.0,6.7,13.37,47.59359,-54.27349
2022-04-21 10:44:00+00:00,218.0,6.38,224.0,7.21,13.37,47.59359,-54.27349
2022-04-21 10:54:00+00:00,227.0,5.65,236.0,6.87,13.37,47.59359,-54.27349
2022-04-21 11:04:00+00:00,229.0,6.05,234.0,8.22,13.37,47.59359,-54.27349
2022-04-21 11:14:00+00:00,229.0,6.88,235.0,8.87,13.76,47.59359,-54.27349
2022-04-21 11:24:00+00:00,245.0,7.27,250.0,8.59,13.76,47.59359,-54.27349
2022-04-21 11:34:00+00:00,251.0,8.06,250.0,8.87,13.76,47.59359,-54.27349
2022-04-21 11:44:00+00:00,246.0,7.1,254.0,8.62,13.76,47.59359,-54.27349
2022-04-21 11:54:00+00:00,253.0,7.06,255.0,7.56,13.76,47.59359,-54.27349
2022-04-21 12:04:00+00:00,250.0,6.9,243.0,7.75,13.76,47.59359,-54.27349
2022-04-21 12:14:01+00:00,252.0,7.09,250.0,7.85,14.4,47.59359,-54.27349
2022-04-21 12:24:01+00:00,252.0,6.8,253.0,8.18,14.4,47.59359,-54.27349
2022-04-21 12:34:01+00:00,259.0,6.23,259.0,7.15,14.4,47.59359,-54.27349
2022-04-21 12:44:01+00:00,279.0,8.84,276.0,11.49,14.4,47.59359,-54.27349
2022-04-21 12:54:01+00:00,288.0,9.22,290.0,11.36,14.4,47.59359,-54.27349
2022-04-21 13:04:01+00:00,278.0,8.39,278.0,9.56,14.4,47.59359,-54.27349
2022-04-21 13:14:01+00:00,273.0,10.17,277.0,11.45,14.32,47.59359,-54.27349
2022-04-21 13:24:01+00:00,284.0,9.77,284.0,12.59,14.32,47.59359,-54.27349
2022-04-21 13:34:01+00:00,284.0,9.04,283.0,11.05,14.32,47.59359,-54.27349
2022-04-21 13:44:01+00:00,273.0,9.89,271.0,11.44,14.32,47.59359,-54.27349
2022-04-21 13:54:01+00:00,272.0,10.3,270.0,11.52,14.32,47.59359,-54.27349
2022-04-21 14:04:01+00:00,278.0,8.25,275.0,12.29,14.32,47.59359,-54.27349
2022-04-21 14:14:00+00:00,286.0,10.43,285.0,12.55,13.53,47.59359,-54.27349
2022-04-21 14:24:00+00:00,285.0,12.86,287.0,14.55,13.53,47.59359,-54.27349
2022-04-21 14:34:00+00:00,286.0,9.8,278.0,13.26,13.53,47.59359,-54.27349
2022-04-21 14:44:00+00:00,283.0,10.93,281.0,14.27,13.53,47.59359,-54.27349
2022-04-21 14:54:00+00:00,279.0,7.61,269.0,10.89,13.53,47.59359,-54.27349
2022-04-21 15:04:00+00:00,282.0,13.11,280.0,14.57,13.53,47.59359,-54.27349
2022-04-21 15:14:01+00:00,293.0,9.04,290.0,13.81,13.68,47.59359,-54.27349
2022-04-21 15:24:01+00:00,280.0,9.89,280.0,14.16,13.68,47.59359,-54.27349
2022-04-21 15:34:01+00:00,285.0,10.67,286.0,14.59,13.68,47.59359,-54.27349
2022-04-21 15:44:01+00:00,303.0,9.32,292.0,13.92,13.68,47.59359,-54.27349
2022-04-21 15:54:01+00:00,286.0,14.2,284.0,15.26,13.68,47.59359,-54.27349
2022-04-21 16:04:01+00:00,305.0,8.18,300.0,10.7,13.68,47.59359,-54.27349
2022-04-21 16:14:00+00:00,301.0,9.02,295.0,11.45,14.16,47.59359,-54.27349
2022-04-21 16:24:00+00:00,292.0,13.64,294.0,14.45,14.16,47.59359,-54.27349
2022-04-21 16:34:00+00:00,324.0,9.09,291.0,13.97,14.16,47.59359,-54.27349
2022-04-21 16:44:00+00:00,304.0,6.87,302.0,9.17,14.16,47.59359,-54.27349
2022-04-21 16:54:00+00:00,307.0,7.21,306.0,9.12,14.16,47.59359,-54.27349
2022-04-21 17:04:00+00:00,321.0,8.03,313.0,9.63,14.16,47.59359,-54.27349
2022-04-21 17:14:01+00:00,307.0,9.2,298.0,14.05,13.92,47.59359,-54.27349
2022-04-21 17:24:01+00:00,318.0,6.49,315.0,7.14,13.92,47.59359,-54.27349
2022-04-21 17:34:01+00:00,310.0,6.03,315.0,7.09,13.92,47.59359,-54.27349
2022-04-21 17:44:01+00:00,320.0,7.01,314.0,8.3,13.92,47.59359,-54.27349
2022-04-21 17:54:01+00:00,333.0,9.14,334.0,9.88,13.92,47.59359,-54.27349
2022-04-21 18:04:01+00:00,329.0,8.23,327.0,9.95,13.92,47.59359,-54.27349
2022-04-21 18:14:01+00:00,313.0,8.11,315.0,9.9,13.76,47.59359,-54.27349
2022-04-21 18:24:01+00:00,328.0,6.89,319.0,7.55,13.76,47.59359,-54.27349
2022-04-21 18:34:01+00:00,321.0,6.53,311.0,9.19,13.76,47.59359,-54.27349
2022-04-21 18:44:01+00:00,333.0,8.42,330.0,9.31,13.76,47.59359,-54.27349
2022-04-21 18:54:01+00:00,331.0,8.65,331.0,9.52,13.76,47.59359,-54.27349
2022-04-21 19:04:01+00:00,320.0,6.39,308.0,8.14,13.76,47.59359,-54.27349
2022-04-21 19:14:00+00:00,314.0,5.89,323.0,6.52,13.68,47.59359,-54.27349
2022-04-21 19:24:00+00:00,326.0,7.0,326.0,7.5,13.68,47.59359,-54.27349
2022-04-21 19:34:00+00:00,332.0,7.85,338.0,8.55,13.68,47.59359,-54.27349
2022-04-21 19:44:00+00:00,320.0,6.21,311.0,7.79,13.68,47.59359,-54.27349
2022-04-21 19:54:00+00:00,335.0,6.34,336.0,7.96,13.68,47.59359,-54.27349
2022-04-21 20:04:00+00:00,325.0,5.61,324.0,6.68,13.68,47.59359,-54.27349
2022-04-21 20:14:01+00:00,318.0,6.83,310.0,7.82,13.76,47.59359,-54.27349
2022-04-21 20:24:01+00:00,346.0,7.7,345.0,8.95,13.76,47.59359,-54.27349
2022-04-21 20:34:01+00:00,324.0,7.13,333.0,8.35,13.76,47.59359,-54.27349
2022-04-21 20:44:01+00:00,323.0,5.8,324.0,6.66,13.76,47.59359,-54.27349
2022-04-21 20:54:01+00:00,314.0,6.85,312.0,7.56,13.76,47.59359,-54.27349
2022-04-21 21:04:01+00:00,308.0,6.67,309.0,7.33,13.76,47.59359,-54.27349
2022-04-21 21:14:01+00:00,353.0,4.98,352.0,5.39,13.6,47.59359,-54.27349
2022-04-21 21:24:01+00:00,332.0,4.77,320.0,6.0,13.6,47.59359,-54.27349
2022-04-21 21:34:01+00:00,349.0,4.86,354.0,5.52,13.6,47.59359,-54.27349
2022-04-21 21:44:01+00:00,1.0,4.58,3.0,4.99,13.6,47.59359,-54.27349
2022-04-21 21:54:01+00:00,0.0,5.51,1.0,5.92,13.6,47.59359,-54.27349
2022-04-21 22:04:01+00:00,3.0,4.87,0.0,5.64,13.6,47.59359,-54.27349
2022-04-21 22:14:00+00:00,9.0,4.2,6.0,4.94,13.37,47.59359,-54.27349
2022-04-21 22:24:00+00:00,7.0,4.06,28.0,4.91,13.37,47.59359,-54.27349
2022-04-21 22:34:00+00:00,9.0,5.64,11.0,6.56,13.37,47.59359,-54.27349
2022-04-21 22:44:00+00:00,8.0,3.32,32.0,3.96,13.37,47.59359,-54.27349
2022-04-21 22:54:00+00:00,6.0,2.44,4.0,2.92,13.37,47.59359,-54.27349
2022-04-21 23:04:00+00:00,20.0,2.95,15.0,3.52,13.37,47.59359,-54.27349
2022-04-21 23:14:00+00:00,8.0,2.96,8.0,3.15,12.73,47.59359,-54.27349
2022-04-21 23:24:00+00:00,359.0,1.85,0.0,2.06,12.73,47.59359,-54.27349
2022-04-21 23:34:00+00:00,1.0,1.14,3.0,1.21,12.73,47.59359,-54.27349
2022-04-21 23:44:00+00:00,356.0,1.53,356.0,1.71,12.73,47.59359,-54.27349
2022-04-21 23:54:00+00:00,312.0,2.05,291.0,4.03,12.73,47.59359,-54.27349
